This demonstration page uses our WeatherBlox Daily Observations layout. Learn more.

Left ArrowRight Arrow

40.92945, -100.16068

Hourly Observations for December 7, 2022

Temp ( °F °C ) Dew Point ( °F °C ) Humidity (%) Winds ( mph kmh ) Pressure ( in mb ) Visibility ( mi km ) Precip ( " mm )
12:15 am 00:15 Clear 21 -6.3 14 -10.1 74 74 W 8 13 30.20 1023 10 16 0.00 0.00
12:35 am 00:35 Clear 20 -6.4 14 -10.1 75 75 Calm 30.20 1023 10 16 0.00 0.00
12:55 am 00:55 Clear 20 -6.8 13 -10.7 74 74 Calm 30.22 1023 10 16 0.00 0.00
1:15 am 01:15 Clear 18 -7.7 13 -10.7 79 79 NW 8 13 30.23 1024 10 16 0.00 0.00
1:35 am 01:35 Clear 18 -7.7 12 -11.1 76 76 N 3 6 30.23 1024 10 16 0.00 0.00
1:55 am 01:55 Clear 18 -7.7 11 -11.6 73 73 WNW 5 7 30.24 1024 10 16 0.00 0.00
2:15 am 02:15 Clear 17 -8.3 11 -11.7 76 76 WNW 6 9 30.24 1024 10 16 0.00 0.00
2:35 am 02:35 Clear 17 -8.2 11 -11.5 77 77 W 5 7 30.25 1024 10 16 0.00 0.00
2:55 am 02:55 Clear 17 -8.5 11 -11.7 78 78 W 5 7 30.26 1025 10 16 0.00 0.00
3:15 am 03:15 Clear 17 -8.3 11 -11.5 78 78 W 6 9 30.26 1025 10 16 0.00 0.00
3:35 am 03:35 Clear 17 -8.2 12 -11.2 79 79 NW 6 9 30.25 1024 10 16 0.00 0.00
3:55 am 03:55 Clear 17 -8.4 11 -11.6 78 78 S 5 7 30.25 1025 10 16 0.00 0.00
4:15 am 04:15 Clear 15 -9.2 11 -11.9 81 81 Calm 30.27 1025 10 16 0.00 0.00
4:35 am 04:35 Clear 17 -8.2 11 -11.5 77 77 WNW 3 6 30.26 1025 10 16 0.00 0.00
4:55 am 04:55 Clear 15 -9.7 10 -12.1 83 83 NW 7 11 30.30 1026 10 16 0.00 0.00
5:15 am 05:15 Clear 19 -7.4 13 -10.8 77 77 WNW 8 13 30.28 1025 10 16 0.00 0.00
5:35 am 05:35 Clear 19 -7.2 12 -11 74 74 WNW 8 13 30.28 1025 10 16 0.00 0.00
5:55 am 05:55 Clear 19 -7.3 12 -11 75 75 WSW 3 6 30.28 1025 10 16 0.00 0.00
6:15 am 06:15 Clear 18 -7.6 12 -11 76 76 NW 6 9 30.28 1026 10 16 0.00 0.00
6:35 am 06:35 Clear 18 -8 12 -11.3 77 77 WNW 3 6 30.30 1026 10 16 0.00 0.00
6:55 am 06:55 Clear 18 -7.9 12 -11.1 78 78 WSW 5 7 30.30 1026 10 16 0.00 0.00
7:15 am 07:15 Clear 17 -8.5 11 -11.6 78 78 WNW 8 13 30.32 1027 10 16 0.00 0.00
7:35 am 07:35 Clear 17 -8.1 12 -11.3 78 78 WNW 6 9 30.33 1027 10 16 0.00 0.00
7:55 am 07:55 Sunny 17 -8.6 11 -11.6 79 79 Calm 30.36 1028 10 16 0.00 0.00
8:15 am 08:15 Sunny 17 -8.1 12 -11.2 78 78 WSW 5 7 30.36 1028 10 16 0.00 0.00
8:35 am 08:35 Sunny 20 -6.6 13 -10.5 74 74 W 6 9 30.35 1028 10 16 0.00 0.00
8:55 am 08:55 Sunny 24 -4.4 15 -9.6 67 67 Calm 30.33 1027 10 16 0.00 0.00
9:15 am 09:15 Sunny 28 -2.2 16 -8.9 60 60 WNW 3 6 30.32 1027 10 16 0.00 0.00
9:35 am 09:35 Sunny 31 -0.4 17 -8.3 55 55 WNW 3 6 30.30 1026 10 16 0.00 0.00
9:55 am 09:55 Sunny 34 1 18 -7.8 52 52 NNW 5 7 30.31 1026 10 16 0.00 0.00
10:15 am 10:15 Sunny 36 2.2 19 -7.2 50 50 N 5 7 30.30 1026 10 16 0.00 0.00
10:35 am 10:35 Sunny 40 4.2 19 -7.5 42 42 NNE 7 11 30.29 1026 10 16 0.00 0.00
10:55 am 10:55 Sunny 41 4.8 18 -7.7 40 40 NNE 13 20 30.29 1026 10 16 0.00 0.00
11:15 am 11:15 Sunny 41 4.8 18 -7.7 40 40 NE 10 17 30.29 1026 10 16 0.00 0.00
11:35 am 11:35 Sunny 40 4.4 19 -7.4 42 42 NNE 12 19 30.29 1026 10 16 0.00 0.00
11:55 am 11:55 Sunny 40 4.6 19 -7.1 42 42 NE 10 17 30.28 1025 10 16 0.00 0.00
12:15 pm 12:15 Sunny 40 4.7 20 -6.9 43 43 NNE 10 17 30.28 1025 10 16 0.00 0.00
12:35 pm 12:35 Sunny 40 4.4 20 -6.8 44 44 NNE 12 19 30.28 1026 10 16 0.00 0.00
12:55 pm 12:55 Sunny 39 3.9 19 -7.3 44 44 NE 10 17 30.29 1026 10 16 0.00 0.00
1:15 pm 13:15 Sunny 38 3.1 18 -7.9 44 44 NNE 10 17 30.30 1026 10 16 0.00 0.00
1:35 pm 13:35 Sunny 36 2.4 17 -8.1 46 46 NE 9 15 30.31 1027 10 16 0.00 0.00
1:55 pm 13:55 Sunny 36 2.2 17 -8.2 46 46 ENE 12 19 30.31 1026 10 16 0.00 0.00
2:15 pm 14:15 Sunny 36 2.3 17 -8.3 45 45 ENE 13 20 30.31 1026 10 16 0.00 0.00
2:35 pm 14:35 Sunny 36 2 17 -8.4 46 46 NE 12 19 30.32 1027 10 16 0.00 0.00
2:55 pm 14:55 Sunny 35 1.9 17 -8.4 46 46 ENE 12 19 30.32 1027 10 16 0.00 0.00
3:15 pm 15:15 Sunny 34 1.1 17 -8.5 49 49 ENE 10 17 30.33 1027 10 16 0.00 0.00
3:35 pm 15:35 Sunny 32 0 16 -8.8 51 51 ENE 10 17 30.34 1027 10 16 0.00 0.00
3:55 pm 15:55 Sunny 31 -0.4 16 -8.8 53 53 ENE 12 19 30.35 1028 10 16 0.00 0.00
4:15 pm 16:15 Sunny 31 -0.6 16 -8.8 54 54 ENE 12 19 30.35 1028 10 16 0.00 0.00
4:35 pm 16:35 Sunny 29 -1.6 16 -9 57 57 ENE 12 19 30.37 1028 10 16 0.00 0.00
4:55 pm 16:55 Sunny 28 -2.5 16 -9.1 60 60 E 10 17 30.38 1029 10 16 0.00 0.00
5:15 pm 17:15 Clear 26 -3.6 15 -9.3 65 65 E 8 13 30.39 1029 10 16 0.00 0.00
5:35 pm 17:35 Clear 24 -4.4 15 -9.3 69 69 E 10 17 30.41 1030 10 16 0.00 0.00
5:55 pm 17:55 Clear 23 -5.1 15 -9.5 71 71 E 8 13 30.42 1030 10 16 0.00 0.00
6:15 pm 18:15 Clear 21 -5.9 15 -9.6 75 75 E 7 11 30.43 1030 10 16 0.00 0.00
6:35 pm 18:35 Clear 20 -6.4 15 -9.7 77 77 ENE 7 11 30.43 1031 10 16 0.00 0.00
6:55 pm 18:55 Clear 20 -6.9 15 -9.7 80 80 E 7 11 30.44 1031 10 16 0.00 0.00
7:15 pm 19:15 Clear 19 -7.3 14 -9.9 82 82 ENE 8 13 30.44 1031 10 16 0.00 0.00
7:35 pm 19:35 Clear 18 -7.6 14 -9.8 84 84 ENE 7 11 30.45 1031 10 16 0.00 0.00
7:55 pm 19:55 Clear 18 -8 14 -10 85 85 ENE 5 7 30.46 1032 10 16 0.00 0.00
8:15 pm 20:15 Clear 17 -8.6 13 -10.4 87 87 E 6 9 30.46 1031 10 16 0.00 0.00
8:35 pm 20:35 Clear 16 -8.7 13 -10.4 87 87 ENE 5 7 30.46 1031 10 16 0.00 0.00
8:55 pm 20:55 Clear 16 -9.1 13 -10.5 90 90 ENE 5 7 30.46 1032 10 16 0.00 0.00
9:15 pm 21:15 Clear 16 -9.1 13 -10.5 90 90 Calm 30.46 1032 10 16 0.00 0.00
9:35 pm 21:35 Clear 15 -9.3 13 -10.5 91 91 ENE 3 6 30.46 1032 10 16 0.00 0.00
9:55 pm 21:55 Clear 15 -9.2 13 -10.5 90 90 ENE 3 6 30.46 1032 10 16 0.00 0.00
10:15 pm 22:15 Clear 15 -9.5 13 -10.8 90 90 E 3 6 30.46 1031 10 16 0.00 0.00
10:35 pm 22:35 Clear 14 -10.2 11 -11.6 89 89 Calm 30.46 1032 10 16 0.00 0.00
10:55 pm 22:55 Clear 13 -10.3 11 -11.7 89 89 N 5 7 30.47 1032 10 16 0.00 0.00
11:15 pm 23:15 Clear 13 -10.5 11 -11.9 89 89 N 5 7 30.47 1032 10 16 0.00 0.00
11:35 pm 23:35 Clear 14 -10 12 -11.2 91 91 Calm 30.46 1032 10 16 0.00 0.00
11:55 pm 23:55 Clear 14 -9.8 12 -11.1 90 90 Calm 30.44 1031 10 16 0.00 0.00

Powered by AerisWeather